Location: Homewood
(41.1836°S, 175.9581°E)
Time: 03:36:15
(UTC+00:00)

SL-4 R/B - Pass Details

Date: 18 April 2024
Orbit: 413 x 603 km, 51.6° (Epoch: 22 May)

Event Time Altitude Azimuth Distance (km) Brightness Sun altitude
Exits shadow 17:44:23 21° 256° (WSW) 1,201 3.1 -13.1°
Maximum altitude 17:46:26 35° 204° (SSW) 869 2.8 -12.8°
Drops below altitude 10° 17:50:20 10° 136° (SE) 1,851 5.3 -12.0°
Sets 17:52:49 0° 127° (SE) 2,784 6.4 -11.6°
